COSMOS 676

Satellite information

Favourite Embed

Satellite Type and Status

PAYLOADIN ORBIT

Key statistics

Satellite COSMOS 676 at a glance.

Uptime

18721

Days in orbit

Revolutions

≈ 14.3

Per day

Orbit

LEO

Low Earth Orbit

Inclination

74.0

Latest

Satellite identification and parameters

Extended collection of information and parameters for COSMOS 676.

Object identification

Identified? True

Debris? False

Object name: COSMOS 676

International designator: 1974-071A

Object number (NORAD): 7433

Object ID (CCSDS): 7433

Country: COMMONWEALTH OF INDEPENDENT STATES (CIS)

Current information (Y/N): Y

RCS size: LARGE

Orbital parameters

Period: 100.456 minutes

Inclination: 74.0486 deg

SMA: 7158.316 km

Apoapsis: 790.364 km

Periapsis: 769.998 km

RAAN: 84.5457 deg

Eccentricy: 0.0014226

Argument of periapsis: 333.1423 deg

Mean anomaly: 26.899 deg

Mean motion: 14.33462941 rev/day

Mean motion (dot): 0.00000267 rev/day2

B* drag term: 0.00010599771 1/REarth

Two-line elements (TLE)

Creation date: Dec. 12, 2025, 10:14 a.m.

Reference frame: TEME

Reference center: EARTH

Epoch: Dec. 12, 2025, 6:19 a.m. UTC

TLE line 0: 0 COSMOS 676

TLE line 1: 1 07433U 74071A 25346.26351982 .00000267 00000-0 10600-3 0 9997

TLE line 2: 2 07433 74.0486 84.5457 0014226 333.1423 26.8990 14.33462941676061

Live tracking on map

Real-time ground track for satellite COSMOS 676.

In-orbit conjunctions

A list of the most updated potential collisions computed for object COSMOS 676.

Target Orbit TCA Probability of collision Miss distance Type
FENGYUN 1C DEB SSO 2025-09-21 15:49:09 0.000188278 745.0 (m) DEBRIS
COSMOS 2251 DEB LEO 2025-05-12 09:47:26 0.0002119745 276.0 (m) DEBRIS
FENGYUN 1C DEB SSO 2025-04-22 11:18:18 0.000283135 491.0 (m) DEBRIS
FENGYUN 1C DEB SSO 2025-04-21 15:33:39 0.0001210452 280.0 (m) DEBRIS
DELTA 1 DEB (YO) LEO 2025-03-15 18:13:48 0.0001036916 947.0 (m) DEBRIS

Associated space launch

Military communications satellite

COSMOS 676 was lifted into orbit during the mission ‘Kosmos-3M | Strela-2M 9’, on board a Kosmos-3M space rocket.

The launch took place on Sept. 11, 1974, 5:40 p.m. from 132/2.

For more information about the launch, click the button.

Launch to space Kosmos-3M | Strela-2M 9
Kosmos-3M | Strela-2M 9

Agency: N/A

Status: Launch Successful

Launch date: Sept. 11, 1974, 5:40 p.m. UTC

Rocket: Kosmos-3M

Launch pad: 132/2

Location: Plesetsk Cosmodrome, Russian Federation

...

Latest news about this satellite

There are no fresh news available about this satellite. Check back as we update our databases every day.


Newsletter sign-up

Weekly statistics, charts and insights to help you stay on top of the space industry.